When you browse on this site, cookies collect data to enhance your experience and personalize the content and advertising you see.
Visit our Privacy Policy to learn more. By continuing to use the site, you agree to this use of cookies and data.
  • în România
  • Lista ţărilor
  • Pe 7 zile
  • Temperatura apei
  • Meteo pe hartă
  • Widget-uri
  • user-avatar
    Intrare

    Meteo pe oră la Bekescsaba

    Astăzi, 22 Octombrie, Marţi

    Timp Temperatura Precipitaţii Vânt Presiune Umiditate
    00:00 +20°C° 0 mm 1 m/s 758 mmHg 54%
    01:00 +19°C° 0 mm 1 m/s 759 mmHg 56%
    02:00 +19°C° 0 mm 1 m/s 759 mmHg 57%
    03:00 +18°C° 0 mm 2 m/s 759 mmHg 58%
    04:00 +17°C° 0 mm 2 m/s 758 mmHg 59%
    05:00 +17°C° 0 mm 2 m/s 759 mmHg 59%
    06:00 +18°C° 0 mm 1 m/s 759 mmHg 60%
    07:00 +19°C° 0 mm 1 m/s 759 mmHg 57%
    08:00 +20°C° 0 mm 1 m/s 760 mmHg 52%
    09:00 +22°C° 0 mm 1 m/s 760 mmHg 46%
    10:00 +24°C° 0 mm 1 m/s 760 mmHg 41%
    11:00 +25°C° 0 mm 1 m/s 760 mmHg 39%
    12:00 +26°C° 0 mm 1 m/s 759 mmHg 36%
    13:00 +28°C° 0 mm 1 m/s 759 mmHg 34%
    14:00 +27°C° 0 mm 1 m/s 759 mmHg 36%
    15:00 +24°C° 0 mm 0 m/s 759 mmHg 38%
    16:00 +24°C° 0 mm 0 m/s 758 mmHg 41%
    17:00 +22°C° 0 mm 0 m/s 758 mmHg 43%
    18:00 +23°C° 0 mm 1 m/s 759 mmHg 46%
    19:00 +22°C° 0 mm 1 m/s 759 mmHg 49%
    20:00 +22°C° 0 mm 1 m/s 759 mmHg 51%
    21:00 +21°C° 0 mm 1 m/s 759 mmHg 52%
    22:00 +21°C° 0 mm 1 m/s 759 mmHg 54%
    23:00 +20°C° 0 mm 1 m/s 759 mmHg 56%

    Mâine, 23 Octombrie, Miercuri

    Timp Temperatura Precipitaţii Vânt Presiune Umiditate
    00:00 +20°C° 0 mm 1 m/s 759 mmHg 59%
    01:00 +19°C° 0 mm 1 m/s 759 mmHg 61%
    02:00 +19°C° 0 mm 1 m/s 759 mmHg 62%
    03:00 +18°C° 0 mm 1 m/s 758 mmHg 64%
    04:00 +18°C° 0 mm 1 m/s 758 mmHg 65%
    05:00 +18°C° 0 mm 1 m/s 758 mmHg 64%
    06:00 +18°C° 0 mm 1 m/s 758 mmHg 64%
    07:00 +18°C° 0 mm 1 m/s 758 mmHg 63%
    08:00 +20°C° 0 mm 1 m/s 758 mmHg 56%
    09:00 +22°C° 0 mm 1 m/s 758 mmHg 49%
    10:00 +24°C° 0 mm 1 m/s 758 mmHg 43%
    11:00 +25°C° 0 mm 1 m/s 758 mmHg 39%
    12:00 +24°C° 0 mm 0 m/s 758 mmHg 36%
    13:00 +26°C° 0 mm 0 m/s 757 mmHg 33%
    14:00 +25°C° 0 mm 0 m/s 757 mmHg 36%
    15:00 +26°C° 0 mm 1 m/s 757 mmHg 38%
    16:00 +25°C° 0 mm 1 m/s 756 mmHg 40%
    17:00 +24°C° 0 mm 1 m/s 756 mmHg 43%
    18:00 +23°C° 0 mm 1 m/s 756 mmHg 46%
    19:00 +21°C° 0 mm 2 m/s 756 mmHg 49%
    20:00 +20°C° 0 mm 2 m/s 756 mmHg 51%
    21:00 +21°C° 0 mm 1 m/s 756 mmHg 53%
    22:00 +20°C° 0 mm 1 m/s 756 mmHg 55%
    23:00 +19°C° 0 mm 2 m/s 756 mmHg 56%

    Poimâine, 24 Octombrie, Joi

    Timp Temperatura Precipitaţii Vânt Presiune Umiditate
    00:00 +18°C° 0 mm 2 m/s 756 mmHg 58%
    01:00 +18°C° 0 mm 2 m/s 756 mmHg 59%
    02:00 +17°C° 0 mm 2 m/s 756 mmHg 59%
    03:00 +17°C° 0 mm 2 m/s 756 mmHg 60%
    04:00 +17°C° 0 mm 2 m/s 756 mmHg 61%
    05:00 +17°C° 0 mm 2 m/s 756 mmHg 61%
    06:00 +16°C° 0 mm 2 m/s 755 mmHg 62%
    07:00 +16°C° 0 mm 2 m/s 755 mmHg 62%
    08:00 +18°C° 0 mm 2 m/s 755 mmHg 54%
    09:00 +21°C° 0 mm 2 m/s 755 mmHg 47%
    10:00 +24°C° 0 mm 2 m/s 755 mmHg 39%
    11:00 +25°C° 0 mm 2 m/s 755 mmHg 35%
    12:00 +26°C° 0 mm 3 m/s 755 mmHg 31%
    13:00 +28°C° 0 mm 3 m/s 754 mmHg 26%
    14:00 +27°C° 0 mm 2 m/s 754 mmHg 28%
    15:00 +26°C° 0 mm 2 m/s 754 mmHg 30%
    16:00 +25°C° 0 mm 1 m/s 753 mmHg 31%
    17:00 +24°C° 0 mm 1 m/s 753 mmHg 33%
    18:00 +23°C° 0 mm 1 m/s 753 mmHg 35%
    19:00 +20°C° 0 mm 2 m/s 754 mmHg 37%
    20:00 +21°C° 0 mm 1 m/s 754 mmHg 39%
    21:00 +20°C° 0 mm 1 m/s 754 mmHg 42%
    22:00 +20°C° 0 mm 1 m/s 754 mmHg 44%
    23:00 +19°C° 0 mm 1 m/s 754 mmHg 47%

    25 Octombrie, Vineri

    Timp Temperatura Precipitaţii Vânt Presiune Umiditate
    00:00 +18°C° 0 mm 1 m/s 754 mmHg 49%
    01:00 +18°C° 0 mm 1 m/s 754 mmHg 52%
    02:00 +16°C° 0 mm 1 m/s 754 mmHg 53%
    03:00 +16°C° 0 mm 1 m/s 754 mmHg 55%
    04:00 +15°C° 0 mm 0 m/s 755 mmHg 56%
    05:00 +16°C° 0 mm 1 m/s 755 mmHg 56%
    06:00 +16°C° 0 mm 1 m/s 755 mmHg 56%
    07:00 +16°C° 0 mm 1 m/s 755 mmHg 57%
    08:00 +19°C° 0 mm 1 m/s 756 mmHg 50%
    09:00 +21°C° 0 mm 1 m/s 756 mmHg 43%
    10:00 +23°C° 0 mm 1 m/s 756 mmHg 36%
    11:00 +24°C° 0 mm 1 m/s 756 mmHg 34%
    12:00 +25°C° 0 mm 1 m/s 756 mmHg 31%
    13:00 +25°C° 0 mm 1 m/s 756 mmHg 29%
    14:00 +25°C° 0 mm 1 m/s 756 mmHg 31%
    15:00 +22°C° 0 mm 0 m/s 756 mmHg 33%
    16:00 +21°C° 0 mm 0 m/s 756 mmHg 35%
    17:00 +20°C° 0 mm 0 m/s 756 mmHg 37%
    18:00 +19°C° 0 mm 0 m/s 757 mmHg 39%
    19:00 +20°C° 0 mm 1 m/s 757 mmHg 42%
    20:00 +19°C° 0 mm 1 m/s 757 mmHg 44%
    21:00 +19°C° 0 mm 1 m/s 757 mmHg 47%
    22:00 +18°C° 0 mm 1 m/s 757 mmHg 49%
    23:00 +16°C° 0 mm 1 m/s 757 mmHg 52%

    26 Octombrie, Sâmbătă

    Timp Temperatura Precipitaţii Vânt Presiune Umiditate
    00:00 +16°C° 0 mm 1 m/s 757 mmHg 55%
    01:00 +15°C° 0 mm 1 m/s 757 mmHg 57%
    02:00 +15°C° 0 mm 1 m/s 757 mmHg 59%
    03:00 +15°C° 0 mm 1 m/s 757 mmHg 60%
    04:00 +14°C° 0 mm 1 m/s 757 mmHg 61%
    05:00 +14°C° 0 mm 1 m/s 757 mmHg 61%
    06:00 +14°C° 0 mm 2 m/s 757 mmHg 61%
    07:00 +14°C° 0 mm 2 m/s 758 mmHg 61%
    08:00 +16°C° 0 mm 2 m/s 758 mmHg 56%
    09:00 +18°C° 0 mm 2 m/s 758 mmHg 51%
    10:00 +20°C° 0 mm 2 m/s 758 mmHg 46%
    11:00 +21°C° 0 mm 2 m/s 758 mmHg 43%
    12:00 +23°C° 0 mm 2 m/s 758 mmHg 40%
    13:00 +24°C° 0 mm 2 m/s 757 mmHg 38%
    14:00 +23°C° 0 mm 2 m/s 757 mmHg 40%
    15:00 +23°C° 0 mm 1 m/s 756 mmHg 42%
    16:00 +22°C° 0 mm 1 m/s 756 mmHg 44%
    17:00 +21°C° 0 mm 1 m/s 756 mmHg 47%
    18:00 +20°C° 0 mm 1 m/s 756 mmHg 50%
    19:00 +19°C° 0 mm 1 m/s 756 mmHg 53%
    20:00 +17°C° 0 mm 2 m/s 756 mmHg 54%
    21:00 +17°C° 0 mm 2 m/s 756 mmHg 56%
    22:00 +17°C° 0 mm 2 m/s 756 mmHg 57%
    23:00 +16°C° 0 mm 2 m/s 756 mmHg 58%

    27 Octombrie, Duminică

    Timp Temperatura Precipitaţii Vânt Presiune Umiditate
    00:00 +16°C° 0 mm 2 m/s 756 mmHg 58%
    01:00 +15°C° 0 mm 2 m/s 756 mmHg 59%
    02:00 +15°C° 0 mm 2 m/s 756 mmHg 61%
    03:00 +14°C° 0 mm 2 m/s 756 mmHg 63%
    04:00 +14°C° 0 mm 2 m/s 756 mmHg 64%
    05:00 +14°C° 0 mm 2 m/s 756 mmHg 66%
    06:00 +14°C° 0 mm 2 m/s 756 mmHg 67%
    07:00 +14°C° 0 mm 2 m/s 756 mmHg 69%
    08:00 +15°C° 0 mm 2 m/s 756 mmHg 63%
    09:00 +17°C° 0 mm 2 m/s 757 mmHg 58%
    10:00 +19°C° 0 mm 2 m/s 757 mmHg 53%
    11:00 +20°C° 0 mm 3 m/s 757 mmHg 50%
    12:00 +21°C° 0 mm 3 m/s 756 mmHg 47%
    13:00 +22°C° 0 mm 3 m/s 756 mmHg 44%
    14:00 +22°C° 0 mm 3 m/s 756 mmHg 45%
    15:00 +21°C° 0 mm 4 m/s 756 mmHg 47%
    16:00 +20°C° 0 mm 4 m/s 756 mmHg 49%
    17:00 +19°C° 0 mm 4 m/s 756 mmHg 51%
    18:00 +18°C° 0 mm 4 m/s 757 mmHg 52%
    19:00 +17°C° 0 mm 4 m/s 757 mmHg 54%
    20:00 +17°C° 0 mm 4 m/s 757 mmHg 54%
    21:00 +15°C° 0 mm 4 m/s 757 mmHg 54%
    22:00 +14°C° 0 mm 3 m/s 758 mmHg 54%
    23:00 +13°C° 0 mm 3 m/s 757 mmHg 53%

    28 Octombrie, Luni

    Timp Temperatura Precipitaţii Vânt Presiune Umiditate
    00:00 +13°C° 0 mm 2 m/s 757 mmHg 52%
    01:00 +13°C° 0 mm 2 m/s 757 mmHg 52%
    02:00 +12°C° 0 mm 2 m/s 757 mmHg 52%
    03:00 +12°C° 0 mm 2 m/s 757 mmHg 53%
    04:00 +12°C° 0 mm 2 m/s 757 mmHg 53%
    05:00 +12°C° 0 mm 1 m/s 757 mmHg 52%
    06:00 +12°C° 0 mm 1 m/s 757 mmHg 50%
    07:00 +12°C° 0 mm 1 m/s 757 mmHg 48%
    08:00 +12°C° 0 mm 1 m/s 757 mmHg 47%
    09:00 +13°C° 0 mm 1 m/s 757 mmHg 46%
    10:00 +13°C° 0 mm 1 m/s 757 mmHg 45%
    11:00 +13°C° 0 mm 1 m/s 757 mmHg 47%
    12:00 +12°C° 0 mm 2 m/s 757 mmHg 49%
    13:00 +12°C° 0 mm 2 m/s 757 mmHg 51%
    14:00 +12°C° 0.2 mm 2 m/s 756 mmHg 57%
    15:00 +11°C° 0.2 mm 1 m/s 756 mmHg 63%
    16:00 +10°C° 0.2 mm 1 m/s 756 mmHg 69%
    17:00 +11°C° 0.1 mm 1 m/s 756 mmHg 70%
    18:00 +11°C° 0.1 mm 1 m/s 756 mmHg 71%
    19:00 +11°C° 0.1 mm 1 m/s 756 mmHg 72%
    20:00 +11°C° 0 mm 1 m/s 756 mmHg 73%
    21:00 +10°C° 0 mm 1 m/s 756 mmHg 75%
    22:00 +10°C° 0 mm 1 m/s 756 mmHg 76%
    23:00 +9°C° 0 mm 2 m/s 756 mmHg 73%
    Arată mai mult